• In Russia
  • List of Countries
  • For 7 days
  • Water Temperature
  • Satellite Maps
  • Weather Map
  • Weather Widgets
  • user-avatar
    Login

    Hourly Weather Lankaran

    Today, 22 February, Friday

    Time Temperature Precipitation Wind Pressure Humidity
    00:00 -2°C° 0 mm 3 mps 631 mmHg 50%
    01:00 -2°C° 0 mm 3 mps 630 mmHg 51%
    02:00 -4°C° 0 mm 3 mps 630 mmHg 52%
    03:00 -4°C° 0 mm 3 mps 630 mmHg 58%
    04:00 -4°C° 0 mm 3 mps 630 mmHg 58%
    05:00 -4°C° 0 mm 3 mps 630 mmHg 58%
    06:00 -5°C° 0 mm 3 mps 630 mmHg 58%
    07:00 -2°C° 0 mm 3 mps 631 mmHg 56%
    08:00 -1°C° 0 mm 3 mps 631 mmHg 54%
    09:00 +1°C° 0 mm 3 mps 632 mmHg 52%
    10:00 +2°C° 0 mm 3 mps 632 mmHg 50%
    11:00 +4°C° 0 mm 2 mps 632 mmHg 47%
    12:00 +4°C° 0 mm 2 mps 633 mmHg 45%
    13:00 +4°C° 0 mm 2 mps 632 mmHg 45%
    14:00 +4°C° 0 mm 2 mps 632 mmHg 45%
    15:00 +4°C° 0 mm 2 mps 632 mmHg 46%
    16:00 +3°C° 0 mm 2 mps 632 mmHg 50%
    17:00 +2°C° 0 mm 2 mps 631 mmHg 55%
    18:00 +1°C° 0 mm 2 mps 631 mmHg 59%
    19:00 -1°C° 0 mm 2 mps 631 mmHg 58%
    20:00 -1°C° 0 mm 2 mps 632 mmHg 58%
    21:00 -1°C° 0 mm 2 mps 632 mmHg 57%
    22:00 -2°C° 0 mm 2 mps 632 mmHg 56%
    23:00 -2°C° 0 mm 2 mps 632 mmHg 55%

    Tomorrow, 23 February, Saturday

    Time Temperature Precipitation Wind Pressure Humidity
    00:00 -2°C° 0 mm 2 mps 632 mmHg 54%
    01:00 -2°C° 0 mm 2 mps 632 mmHg 54%
    02:00 -2°C° 0 mm 2 mps 632 mmHg 54%
    03:00 -2°C° 0 mm 2 mps 632 mmHg 55%
    04:00 -2°C° 0 mm 2 mps 632 mmHg 56%
    05:00 -3°C° 0 mm 2 mps 632 mmHg 56%
    06:00 -3°C° 0 mm 2 mps 632 mmHg 57%
    07:00 -1°C° 0 mm 2 mps 633 mmHg 54%
    08:00 +1°C° 0 mm 2 mps 634 mmHg 51%
    09:00 +2°C° 0 mm 2 mps 635 mmHg 48%
    10:00 +3°C° 0 mm 2 mps 635 mmHg 48%
    11:00 +4°C° 0 mm 2 mps 635 mmHg 48%
    12:00 +4°C° 0 mm 2 mps 635 mmHg 48%
    13:00 +4°C° 0 mm 2 mps 635 mmHg 49%
    14:00 +4°C° 0 mm 2 mps 635 mmHg 50%
    15:00 +4°C° 0 mm 2 mps 634 mmHg 52%
    16:00 +4°C° 0 mm 1 mps 634 mmHg 56%
    17:00 +3°C° 0 mm 1 mps 634 mmHg 60%
    18:00 +2°C° 0 mm 1 mps 634 mmHg 64%
    19:00 +2°C° 0 mm 1 mps 634 mmHg 63%
    20:00 +1°C° 0 mm 1 mps 634 mmHg 61%
    21:00 +1°C° 0 mm 1 mps 634 mmHg 59%
    22:00 +1°C° 0 mm 1 mps 634 mmHg 57%
    23:00 +1°C° 0 mm 1 mps 634 mmHg 56%

    Day after tomorrow, 24 February, Sunday

    Time Temperature Precipitation Wind Pressure Humidity
    00:00 +1°C° 0 mm 1 mps 634 mmHg 54%
    01:00 -2°C° 0 mm 2 mps 634 mmHg 53%
    02:00 -2°C° 0 mm 2 mps 634 mmHg 52%
    03:00 -2°C° 0 mm 2 mps 633 mmHg 50%
    04:00 -2°C° 0 mm 2 mps 633 mmHg 50%
    05:00 -2°C° 0 mm 2 mps 634 mmHg 49%
    06:00 0°C° 0 mm 1 mps 634 mmHg 49%
    07:00 +1°C° 0 mm 1 mps 634 mmHg 45%
    08:00 +2°C° 0 mm 1 mps 635 mmHg 42%
    09:00 +2°C° 0 mm 0 mps 636 mmHg 39%
    10:00 +4°C° 0 mm 1 mps 636 mmHg 41%
    11:00 +5°C° 0 mm 1 mps 636 mmHg 42%
    12:00 +5°C° 0 mm 1 mps 636 mmHg 43%
    13:00 +5°C° 0 mm 1 mps 636 mmHg 46%
    14:00 +5°C° 0 mm 1 mps 635 mmHg 48%
    15:00 +5°C° 0 mm 1 mps 635 mmHg 51%
    16:00 +4°C° 0 mm 1 mps 635 mmHg 57%
    17:00 +3°C° 0 mm 1 mps 635 mmHg 63%
    18:00 +1°C° 0 mm 0 mps 634 mmHg 69%
    19:00 +2°C° 0 mm 1 mps 634 mmHg 65%
    20:00 +2°C° 0 mm 1 mps 634 mmHg 61%
    21:00 +1°C° 0 mm 1 mps 635 mmHg 58%
    22:00 +1°C° 0 mm 1 mps 635 mmHg 52%
    23:00 -1°C° 0 mm 2 mps 634 mmHg 47%

    25 February, Monday

    Time Temperature Precipitation Wind Pressure Humidity
    00:00 -1°C° 0 mm 2 mps 634 mmHg 42%
    01:00 -1°C° 0 mm 2 mps 634 mmHg 40%
    02:00 -1°C° 0 mm 2 mps 634 mmHg 37%
    03:00 -2°C° 0 mm 2 mps 634 mmHg 35%
    04:00 -2°C° 0 mm 2 mps 634 mmHg 36%
    05:00 -2°C° 0 mm 2 mps 634 mmHg 37%
    06:00 -2°C° 0 mm 2 mps 634 mmHg 37%
    07:00 +1°C° 0 mm 1 mps 635 mmHg 36%
    08:00 +2°C° 0 mm 1 mps 636 mmHg 36%
    09:00 +2°C° 0 mm 0 mps 636 mmHg 35%
    10:00 +4°C° 0 mm 1 mps 636 mmHg 39%
    11:00 +4°C° 0 mm 1 mps 636 mmHg 43%
    12:00 +4°C° 0 mm 2 mps 636 mmHg 47%
    13:00 +3°C° 0 mm 2 mps 635 mmHg 52%
    14:00 +3°C° 0 mm 2 mps 635 mmHg 56%
    15:00 +3°C° 0 mm 2 mps 634 mmHg 61%
    16:00 +2°C° 0 mm 2 mps 634 mmHg 65%
    17:00 +2°C° 0 mm 2 mps 634 mmHg 70%
    18:00 +2°C° 0 mm 1 mps 633 mmHg 75%
    19:00 +1°C° 0 mm 1 mps 633 mmHg 77%
    20:00 +1°C° 0 mm 1 mps 633 mmHg 79%
    21:00 +1°C° 0 mm 1 mps 633 mmHg 80%
    22:00 +1°C° 0 mm 1 mps 633 mmHg 77%
    23:00 0°C° 0 mm 1 mps 633 mmHg 74%

    26 February, Tuesday

    Time Temperature Precipitation Wind Pressure Humidity
    00:00 0°C° 0 mm 1 mps 632 mmHg 71%
    01:00 0°C° 0 mm 1 mps 632 mmHg 69%
    02:00 0°C° 0 mm 1 mps 631 mmHg 66%
    03:00 0°C° 0 mm 1 mps 631 mmHg 64%
    04:00 0°C° 0 mm 1 mps 631 mmHg 63%
    05:00 0°C° 0 mm 1 mps 630 mmHg 62%
    06:00 -2°C° 0 mm 2 mps 630 mmHg 60%
    07:00 +1°C° 0 mm 2 mps 630 mmHg 55%
    08:00 +2°C° 0 mm 2 mps 631 mmHg 50%
    09:00 +3°C° 0 mm 3 mps 631 mmHg 45%
    10:00 +4°C° 0 mm 3 mps 631 mmHg 41%
    11:00 +5°C° 0 mm 4 mps 630 mmHg 38%
    12:00 +7°C° 0 mm 4 mps 630 mmHg 35%
    13:00 +7°C° 0 mm 4 mps 629 mmHg 36%
    14:00 +7°C° 0 mm 4 mps 628 mmHg 36%
    15:00 +7°C° 0 mm 4 mps 627 mmHg 36%
    16:00 +6°C° 0 mm 4 mps 626 mmHg 40%
    17:00 +5°C° 0 mm 4 mps 625 mmHg 45%
    18:00 +4°C° 0 mm 3 mps 624 mmHg 49%
    19:00 +4°C° 0 mm 3 mps 624 mmHg 51%
    20:00 +3°C° 0 mm 3 mps 623 mmHg 53%
    21:00 +3°C° 0 mm 4 mps 623 mmHg 54%
    22:00 +2°C° 0 mm 3 mps 622 mmHg 59%
    23:00 +2°C° 0 mm 3 mps 621 mmHg 64%

    27 February, Wednesday

    Time Temperature Precipitation Wind Pressure Humidity
    00:00 +1°C° 0 mm 3 mps 621 mmHg 68%
    01:00 +1°C° 0.2 mm 3 mps 621 mmHg 70%
    02:00 0°C° 0.2 mm 3 mps 621 mmHg 72%
    03:00 0°C° 0.2 mm 3 mps 621 mmHg 74%
    04:00 -1°C° 0.4 mm 3 mps 620 mmHg 79%
    05:00 -1°C° 0.4 mm 3 mps 620 mmHg 84%
    06:00 -3°C° 0.4 mm 4 mps 620 mmHg 88%
    07:00 -4°C° 1.1 mm 4 mps 620 mmHg 89%
    08:00 -4°C° 1.1 mm 4 mps 620 mmHg 89%
    09:00 -4°C° 1.1 mm 4 mps 620 mmHg 90%
    10:00 -5°C° 1.6 mm 4 mps 620 mmHg 91%
    11:00 -5°C° 1.6 mm 4 mps 619 mmHg 92%
    12:00 -5°C° 1.6 mm 4 mps 619 mmHg 92%
    13:00 -7°C° 1.8 mm 4 mps 619 mmHg 93%
    14:00 -7°C° 1.8 mm 4 mps 619 mmHg 93%
    15:00 -7°C° 1.8 mm 4 mps 619 mmHg 94%
    16:00 -6°C° 1.2 mm 3 mps 620 mmHg 94%
    17:00 -6°C° 1.2 mm 3 mps 620 mmHg 94%
    18:00 -6°C° 1.2 mm 3 mps 621 mmHg 93%
    19:00 -5°C° 0.6 mm 2 mps 621 mmHg 93%
    20:00 -5°C° 0.6 mm 2 mps 622 mmHg 93%
    21:00 -5°C° 0.6 mm 2 mps 622 mmHg 93%
    22:00 -5°C° 0.7 mm 2 mps 622 mmHg 93%
    23:00 -5°C° 0.7 mm 2 mps 622 mmHg 94%
    Show more